{"data":{"norad_id":67250,"intl_designator":"2025-313C","name":"2025-313C","alt_names":[],"object_type":"PAYLOAD","status":"ACTIVE","operator":null,"country":"TBD","launch_date":"2025-12-28","launch_site_code":"VOSTO","launch_vehicle":null,"mission":null,"orbit_class":"UNKNOWN","rcs_meters":null,"size_class":null,"mass_kg":null,"dimensions":null,"purposes":[],"wikipedia_slug":null,"has_3d_model":false,"image_url":null,"decayed_at":null,"tle_current":{"epoch":"2026-09-20T21:32:45.159360Z","epoch_age_seconds":68757,"freshness":"FRESH","line1":"1 67250U 25313C   26263.89774490  .00004000  00000+0  34113-3 0  9999","line2":"2 67250  97.6094 331.0635 0147311  19.5173 341.1603 14.90201888 39608","mean_motion":14.90201888,"eccentricity":0.0147311,"inclination_deg":97.6094,"raan_deg":331.0635,"arg_perigee_deg":19.5173,"mean_anomaly_deg":341.1603,"bstar":0.00034113,"rev_number":3960,"period_min":96.631202228084,"perigee_km":494.54964407927,"apogee_km":700.06152864722,"semimajor_km":6975.4425863632,"source":"CELESTRAK","updated_at":"2026-09-21T09:00:16.511310Z"}}}